WB7CYS Weather Reports


Display with metric or nautical units.
time (UTC)temp
F
wind
direction
speed
MPH
gust
MPH
rain 1hr
in
rain 24hr
in
rain mn
in
humidity
%
barometer
mb
20260508200020 69 276 5.0 9.0 0.00 0.00 0.00 33 1013.7
20260508194519 69 288 3.0 10.0 0.00 0.00 0.00 36 1013.8
20260508193018 68 283 3.0 12.0 0.00 0.00 0.00 40 1013.9
20260508191518 68 319 0.0 6.0 0.00 0.00 0.00 39 1014.1
20260508190014 67 187 4.0 8.0 0.00 0.00 0.00 40 1014.2
20260508184519 66 228 5.0 9.0 0.00 0.00 0.00 39 1014.4
20260508183010 65 271 3.0 7.0 0.00 0.00 0.00 43 1014.6
20260508181508 64 243 6.0 8.0 0.00 0.00 0.00 42 1014.8
20260508180009 64 208 6.0 9.0 0.00 0.00 0.00 41 1014.9
20260508174507 64 224 4.0 7.0 0.00 0.00 0.00 42 1015.0
20260508173003 63 253 1.0 6.0 0.00 0.00 0.00 43 1015.1
20260508171600 63 214 4.0 6.0 0.00 0.00 0.00 43 1015.0
20260508164555 62 165 1.0 4.0 0.00 0.00 0.00 46 1014.8
20260508163053 62 291 2.0 5.0 0.00 0.00 0.00 45 1014.6
20260508161548 60 104 2.0 4.0 0.00 0.00 0.00 47 1014.6
20260508160047 59 95 5.0 6.0 0.00 0.00 0.00 45 1014.5
20260508154545 59 97 2.0 5.0 0.00 0.00 0.00 48 1014.5
20260508153044 58 107 2.0 4.0 0.00 0.00 0.00 48 1014.4
20260508151541 57 89 4.0 6.0 0.00 0.00 0.00 48 1014.5
20260508150040 55 95 4.0 7.0 0.00 0.00 0.00 47 1014.4
20260508144538 55 113 3.0 6.0 0.00 0.00 0.00 44 1014.4
20260508143039 54 85 4.0 8.0 0.00 0.00 0.00 46 1014.4
20260508141539 53 103 5.0 10.0 0.00 0.00 0.00 45 1014.2
20260508140037 53 73 9.0 12.0 0.00 0.00 0.00 44 1014.0
20260508134534 52 60 10.0 13.0 0.00 0.00 0.00 46 1013.8
20260508133031 51 61 7.0 12.0 0.00 0.00 0.00 48 1013.7
20260508131529 0 0.0 0.0 0.00 0.00 0.00 1013.6
20260508130024 0 0.0 0.0 0.00 0.00 0.00 1013.4
20260508124519 0 0.0 0.0 0.00 0.00 0.00 1013.4
20260508123015 0 0.0 0.0 0.00 0.00 0.00 1013.5
20260508121510 0 0.0 0.0 0.00 0.00 0.00 1013.5
20260508120007 0 0.0 0.0 0.00 0.00 0.00 1013.5
20260508114501 0 0.0 0.0 0.00 0.00 0.00 1013.3
20260508113104 0 0.0 0.0 0.00 0.00 0.00 1013.2
20260508111553 0 0.0 0.0 0.00 0.00 0.00 1013.2
20260508110049 0 0.0 0.0 0.00 0.00 0.00 1013.0
20260508104544 0 0.0 0.0 0.00 0.00 0.00 1013.0
20260508103041 0 0.0 0.0 0.00 0.00 0.00 1012.9
20260508101538 52 96 10.0 14.0 0.00 0.00 0.00 43 1012.8
20260508100036 53 67 13.0 15.0 0.00 0.00 0.00 42 1012.7
20260508094542 52 83 8.0 10.0 0.00 0.00 0.00 45 1012.8
20260508093034 54 100 5.0 8.0 0.00 0.00 0.00 42 1012.8
20260508091536 55 73 7.0 10.0 0.00 0.00 0.00 36 1012.6
20260508090027 54 66 10.0 13.0 0.00 0.00 0.00 40 1012.7
20260508084524 53 89 5.0 12.0 0.00 0.00 0.00 44 1012.7
20260508083020 55 114 4.0 6.0 0.00 0.00 0.00 39 1012.8
20260508081548 55 86 5.0 8.0 0.00 0.00 0.00 40 1012.8
20260508080016 58 96 3.0 5.0 0.00 0.00 0.00 29 1012.9
20260508074514 57 150 3.0 7.0 0.00 0.00 0.00 30 1012.9
20260508073010 56 104 5.0 7.0 0.00 0.00 0.00 36 1012.9
20260508071519 56 97 5.0 7.0 0.00 0.00 0.00 45 1012.8
20260508070005 57 99 4.0 7.0 0.00 0.00 0.00 41 1012.6
20260508064509 56 91 3.0 6.0 0.00 0.00 0.00 45 1012.5
20260508063012 57 98 3.0 5.0 0.00 0.00 0.00 45 1012.5
20260508061505 56 84 5.0 6.0 0.00 0.00 0.00 47 1012.4
20260508060004 57 87 5.0 7.0 0.00 0.00 0.00 44 1012.4
20260508054506 56 89 5.0 9.0 0.00 0.00 0.00 51 1012.3
20260508053005 56 83 5.0 7.0 0.00 0.00 0.00 49 1012.1
20260508051501 59 96 2.0 4.0 0.00 0.00 0.00 44 1011.8
20260508044601 60 85 2.0 4.0 0.00 0.00 0.00 43 1011.6
20260508043103 58 96 3.0 5.0 0.00 0.00 0.00 48 1011.5
20260508041559 60 94 5.0 7.0 0.00 0.00 0.00 45 1011.5
20260508034559 61 90 5.0 7.0 0.00 0.00 0.00 42 1011.2
20260508033056 61 106 5.0 6.0 0.00 0.00 0.00 46 1011.3
20260508031558 63 91 6.0 7.0 0.00 0.00 0.00 40 1011.1
20260508030058 64 91 5.0 7.0 0.00 0.00 0.00 40 1011.0
20260508024555 65 101 6.0 7.0 0.00 0.00 0.00 37 1010.9
20260508023055 67 323 2.0 7.0 0.00 0.00 0.00 33 1010.7
20260508021556 69 304 4.0 7.0 0.00 0.00 0.00 28 1010.7
20260508014556 72 293 8.0 11.0 0.00 0.00 0.00 23 1010.6
20260508013051 73 295 9.0 11.0 0.00 0.00 0.00 26 1010.7
20260508011551 73 284 7.0 11.0 0.00 0.00 0.00 24 1010.7
20260508010049 74 269 9.0 14.0 0.00 0.00 0.00 19 1010.7
20260508004548 73 247 9.0 13.0 0.00 0.00 0.00 21 1010.9
20260508003046 73 260 6.0 10.0 0.00 0.00 0.00 21 1010.9
20260508001543 74 271 7.0 11.0 0.00 0.00 0.00 19 1011.1
20260508000047 74 243 7.0 14.0 0.00 0.00 0.00 22 1011.0
20260507234540 73 280 7.0 12.0 0.00 0.00 0.00 22 1011.1
20260507233043 73 219 4.0 11.0 0.00 0.00 0.00 24 1011.2
20260507231537 73 290 9.0 16.0 0.00 0.00 0.00 22 1011.4
20260507230034 73 283 7.0 12.0 0.00 0.00 0.00 24 1011.5
20260507224539 73 165 6.0 9.0 0.00 0.00 0.00 23 1011.7
20260507223027 72 280 6.0 12.0 0.00 0.00 0.00 25 1011.9
20260507221534 71 257 6.0 13.0 0.00 0.00 0.00 28 1012.2
20260507220022 72 214 5.0 9.0 0.00 0.00 0.00 27 1012.3
20260507214520 71 231 8.0 14.0 0.00 0.00 0.00 28 1012.5
20260507213017 71 290 8.0 12.0 0.00 0.00 0.00 30 1012.6
20260507211521 70 180 5.0 15.0 0.00 0.00 0.00 30 1012.8
20260507210012 69 281 5.0 12.0 0.00 0.00 0.00 29 1013.0
20260507204511 69 298 10.0 17.0 0.00 0.00 0.00 29 1013.2
20260507203010 69 143 3.0 12.0 0.00 0.00 0.00 35 1013.3
20260507201506 68 277 4.0 12.0 0.00 0.00 0.00 34 1013.5